Starlink 30818

operational
NORAD ID: 58217 Int'l Des: 2023-170 Owner: SPXS Country: US Constellation: starlink
LEOCIRCULAR

关于 Starlink 30818

正在加载描述...

实时位置

正在加载3D地球...

即将过境

高度历史

Altitude vs Time

uPlot chart will show altitude changes over time

两行轨道根数

1 58217U 23170M 25258.20182431 .00000780 00000-0 72767-4 0 9997
2 58217 43.0047 69.2919 0001386 266.8003 93.2680 15.02540199103886
Epoch: Sep 15, 2025 • Age: 9 hours

当前状态

高度 568.8 km
速度 7.58 km/s
星下点 -36.30°S, 168.56°E
发射日期 Nov 4, 2023
运行时间 1.8 years
类型 internet

技术详情

分类 Payload
质量 730.00 kg
干质量 700.00 kg
总质量 730.00 kg
长度 0.30 m
直径 4.10 m
跨度 29.00 m
形状 Box + pan
制造商 SPXS
平台类型 Starlink V2M
阶段状态 In Orbit
所有者/国家 SPXS/US

大型星座

Loading constellations...